Other Public Products
Issued by NWS Grand Forks, ND

Home | Current Version | Previous Version | Text Only | Print | Product List | Glossary Off
Versions: 1 2 3 4 5 6 7 8 9 10 11 12 13 14 15 16 17 18 19 20 21 22 23 24 25 26 27 28 29 30 31 32 33 34 35 36 37 38 39 40 41 42 43 44 45 46 47 48 49 50

000
FPUS83 KFGF 210531
OPUFGF
PRAIRIE TO PINES WEATHER ROUNDUP
NATIONAL WEATHER SERVICE EASTERN NORTH DAKOTA/GRAND FORKS ND
1200 AM CDT SAT APR 21 2018

 **SATELLITE DATA USED TO AUGMENT SKY COVER AT AUTOMATED STATIONS**
 *****  WEATHER ACROSS EASTERN NORTH DAKOTA  *****

CITY           SKY/WX    TMP DP  RH WIND       PRES   REMARKS
GRAND FORKS    FAIR      39  35  86 S9        30.35S
GRND FORKS AFB FAIR      39  33  80 S9        30.34F
GRND FORKS NWS   N/A     42  37  82 S9        30.32S
BUXTON           N/A     40  39  95 S9          N/A
DEVILS LAKE    FAIR      35  30  82 SE5       30.31F
FARGO          FAIR      42  33  70 S10       30.37F
WAHPETON ARPT  FAIR      36  32  87 SE7       30.38F
$$

 *****  WEATHER ACROSS CENTRAL AND WESTERN NORTH DAKOTA  *****

CITY           SKY/WX    TMP DP  RH WIND       PRES   REMARKS
JAMESTOWN      FAIR      38  34  85 S8        30.31F
BISMARCK       FAIR      38  33  82 SE3       30.29S
MINOT          FAIR      44  32  62 VRB5      30.20F
MINOT AFB      FAIR      38  32  79 SE7       30.19F
GARRISON         N/A     42  33  70 S12       30.23S
WILLISTON      FAIR      49  36  61 S8        30.15R
DICKINSON      FAIR      40  36  86 S10       30.19S
HETTINGER      FAIR      40  35  83 SE13      30.23S
$$

 *****  OTHER OBSERVATIONS NORTHEAST NORTH DAKOTA  *****

CITY           SKY/WX    TMP DP  RH WIND       PRES   REMARKS
WALHALLA       FAIR      43  30  61 S8        30.31F
LANGDON        FAIR      37  37 100 S12       30.30F
CAVALIER         N/A     37  32  81 S6        30.32F
GRAFTON        FAIR      36  30  80 S8        30.35F
CANDO          FAIR      32  32 100 SE8       30.30F WCI  25
FORT TOTTEN      N/A     41  34  75 S7        29.95S
ROLLA          FAIR      37  37 100 S8        30.27S
RUGBY          FAIR      39  36  87 S9        30.25F
 ***** THE ABOVE OBSERVATIONS ARE NON NWS ARE NOT QUALITY
        CONTROLLED AND MAY MIS-REPORT RAIN FOR SNOW...
$$

 *****  OTHER OBSERVATIONS SOUTHEAST NORTH DAKOTA *****

CITY           SKY/WX    TMP DP  RH WIND       PRES   REMARKS
COOPERSTOWN    FAIR      37  37 100 SE8       30.33S
VALLEY CITY    CLOUDY    39  39 100 S7        30.34F
OAKES            N/A     34  34 100 S9        30.35F
GWINNER          N/A     36  36 100 SW6       30.35F
SHEYENNE NWR     N/A     37  37 100 SE3       29.95S
BUFFALO          N/A     40  37  89 E9          N/A
WYNDMERE       NOT AVBL
 ***** THE ABOVE OBSERVATIONS ARE NON NWS ARE NOT QUALITY
       CONTROLLED AND MAY MIS-REPORT RAIN FOR SNOW...
$$

  *****  WEATHER ACROSS NORTHERN MINNESOTA  *****

CITY           SKY/WX    TMP DP  RH WIND       PRES   REMARKS
FLAG ISLAND    FAIR      43  28  56 CALM      30.34F
WARROAD        FAIR      36  30  80 CALM      30.37S
ROSEAU         FAIR      36  30  80 S5        30.36S
HALLOCK        FAIR      36  32  87 SE7       30.34S
THF RVR FALLS  FAIR      41  32  70 S6        30.37F
HALSTAD        NOT AVBL
FOSSTON        FAIR      36  23  60 S6        30.39S
BAUDETTE       FAIR      36  32  85 W3        30.36R
WASKISH        FAIR      37  27  65 SW5       30.37F
CROOKSTON      FAIR      43  37  81 S9        30.37S
$$
  *****  WEATHER ACROSS CENTRAL AND WEST MINNESOTA  *****

CITY           SKY/WX    TMP DP  RH WIND       PRES   REMARKS
BEMIDJI        FAIR      40  22  47 SW3       30.38F
PARK RAPIDS    FAIR      37  24  59 CALM      30.38F
WADENA         FAIR      36  30  80 CALM      30.39F
DETROIT LAKES  FAIR      37  32  81 CALM      30.40S
MOORHEAD       FAIR      39  34  81 S9        30.39S
FERGUS FALLS   FAIR      36  30  80 SE7       30.39S
ELBOW LAKE     FAIR      34  31  88 E6        30.40S
MORRIS MN      FAIR      34  30  86 SE8       30.38F
STAPLES        FAIR      36  28  75 CALM      30.40F
WHEATON        FAIR      34  30  86 SE5       30.40F
$$
  *****  WEATHER ELSEWHERE ACROSS MINNESOTA  *****

CITY           SKY/WX    TMP DP  RH WIND       PRES   REMARKS
DULUTH         FAIR      41  20  43 W7        30.40S
INTRNTL FALLS  FAIR      31  26  82 CALM      30.35S
ELY            FAIR      30  19  64 CALM      30.38R
CLOQUET        FAIR      39  14  35 W6        30.40F
BRAINERD       FAIR      36  23  59 S5        30.41F
HIBBING        FAIR      39  19  44 SW3       30.39R
ALEXANDRIA     FAIR      38  31  76 S6        30.40F
SAINT CLOUD    FAIR      32  24  72 CALM      30.42F
MINNEAPOLIS    CLOUDY    43  27  53 NW3       30.44F
$$

  *****  WEATHER ACROSS SOUTH DAKOTA  *****

CITY           SKY/WX    TMP DP  RH WIND       PRES   REMARKS
SIOUX FALLS    CLOUDY    40  33  76 E5        30.35F
BROOKINGS      FAIR      37  32  82 SE3       30.36F
WATERTOWN      FAIR      37  35  92 S6        30.35F
HURON          FAIR      39  36  89 SE3       30.35F
SISSETON         N/A     36  35  96 SE8       30.36F
ABERDEEN       FAIR      38  36  92 CALM      30.35F
MITCHELL       CLOUDY    41  37  86 S9        30.35F
PIERRE         CLOUDY    42  41  96 E5        30.29F
MOBRIDGE       FAIR      43  36  76 SE12      30.28S
RAPID CITY     CLOUDY    39  38  96 SE12      30.24R
$$

  *****  SOME WEATHER IN NEARBY STATES *****

CITY           SKY/WX    TMP DP  RH WIND       PRES   REMARKS
GLASGOW MT     FAIR      48  36  63 E10       30.06S
GREAT FALLS MT FAIR      42  26  53 SW10      30.06F
CHEYENNE WY    LGT SNOW  32  32 100 SE13      30.12R FOG     WCI  22
SCOTTSBLUFF NE CLOUDY    37  32  82 SE15      30.20R HAZE
OMAHA NE       CLOUDY    54  28  36 E14       30.32R
DES MOINES IA  CLOUDY    52  25  35 E9        30.35F
DAVENPORT IA   FAIR      45  27  49 E5        30.42S
CHICAGO IL     MOCLDY    44  17  33 CALM      30.44R
EAU CLAIRE WI  FAIR      34  22  61 CALM      30.43S
LA CROSSE WI   FAIR      42  30  62 CALM      30.44S
$$

  *****  SOME NATIONAL WEATHER *****

CITY           SKY/WX    TMP DP  RH WIND       PRES   REMARKS
LA GUARDIA NY  FAIR      42  24  49 NW12      30.37S
RALEIGH NC     FAIR      43  32  65 CALM      30.36R
ATLANTA GA     FAIR      54  35  48 E6        30.28F
NEW ORLEANS LA MOCLDY    55  51  86 CALM      30.17F
OKLAHOMA CITY  CLOUDY    57  38  48 SE20      30.08R
ALBUQUERQUE NM CLOUDY    47  31  53 W12       30.07S
SALT LAKE CITY FAIR      53  38  56 CALM      30.06S
LOS ANGELES CA FAIR      58  52  80 CALM      30.11R
BOISE ID       FAIR      56  31  38 CALM      30.09S
SEATTLE WA     CLOUDY    53  37  54 SW8       30.17S
$$

*** WEATHER ACROSS MANITOBA...SASKATCHEWAN AND ONTARIO ***
                ***ONTARIO***

CITY           SKY/WX    TMP DP  RH WIND       PRES   REMARKS
GERALDTON      CLEAR     30  16  55 CALM      30.37S
THUNDER BAY    MOCLDY    32  23  69 CALM      30.38S
SIOUX LOOKOUT  PTCLDY    28  21  74 CALM      30.33S
TORONTO        PTCLDY    34  23  64 NW8       30.44R
BIG TROUT LK   CLEAR     36  21  55 SE9       30.33F
PICKLE LAKE    NOT AVBL
DRYDEN         CLEAR     45  19  36 S5        30.33S
KENORA         MOCLDY    43  27  52 W7        30.34R
$$
                *** MANITOBA***

CITY           SKY/WX    TMP DP  RH WIND       PRES   REMARKS
BRANDON        CLEAR     37  32  81 SE8       30.25S
DAUPHIN        CLEAR     39  32  75 VRB2      30.21F
ISLAND LAKE    CLEAR     32  21  64 CALM      30.26S
PILOT MOUND      N/A     36  30  80 SE10        N/A
THE PAS        PTCLDY    36  28  75 S7        30.13S
THOMPSON       PTCLDY    43  18  36 S7        30.15F
WINNIPEG       CLEAR     43  30  61 S14       30.32S
LYNN LAKE      MOCLDY    43  25  49 S8        30.02S
CHURCHILL      MOCLDY    41  30  65 S12G20    30.07F
GILLAM         MOCLDY    41  19  42 S8        30.19F
$$
                ***SASKATCHEWAN***

CITY           SKY/WX    TMP DP  RH WIND       PRES   REMARKS
ESTEVAN        PTCLDY    39  32  75 SE8       30.15S
KINDERSLEY     CLOUDY    45  36  70 SW7       30.00S
LLOYDMINSTER   PTCLDY    39  34  81 SW9       30.00R
PRINCE ALBERT  PTCLDY    34  30  86 E7        30.06F
REGINA         CLEAR     43  36  75 SE17      30.11F
YORKTON        CLEAR     39  32  75 S10       30.16F


USA.gov is the U.S. government's official web portal to all federal, state and local government web resources and services.